This demonstration page uses our WeatherBlox Daily Observations layout. Learn more.

Left ArrowRight Arrow

39.01783, -85.05884

Hourly Observations for October 3, 2015

Temp ( °F °C ) Dew Point ( °F °C ) Humidity (%) Winds ( mph kmh ) Pressure ( in mb ) Visibility ( mi km ) Precip ( " mm )
2:01 am 02:01 Cloudy 46 8 46 8 100 100 NE 17 28 30.06 1018 6 10 N/A
2:52 am 02:52 Cloudy with Light Rain 46 8 46 8 100 100 NE 16 26 30.06 1018 N/A N/A
3:52 am 03:52 Cloudy 47 8.3 46 7.8 97 97 NE 15 24 29.99 1016 10 16 N/A
5:13 am 05:13 Cloudy 48 9 41 5 76 76 NE 15 24 30.00 1016 10 16 N/A
6:52 am 06:52 Cloudy 47 8.3 42 5.6 83 83 NE 18 30 29.99 1016 10 16 N/A
7:30 am 07:30 Cloudy 46 8 43 6 87 87 NE 15 24 30.03 1017 10 16 N/A
7:52 am 07:52 Cloudy with Drizzle 47 8.3 43 6.1 86 86 NE 16 26 29.99 1016 8 13 N/A
8:41 am 08:41 Cloudy with Light Rain 46 8 45 7 93 93 NE 12 19 30.03 1017 3 5 0.01 0.25
8:43 am 08:43 Cloudy with Light Rain 46 8 45 7 93 93 NE 14 22 30.03 1017 3 4 0.01 0.25
8:52 am 08:52 Cloudy with Light Rain 47 8.3 44 6.7 90 90 NE 14 22 30.00 1016 3 4 0.01 0.25
9:15 am 09:15 Cloudy 46 8 45 7 93 93 NNE 16 26 30.03 1017 10 16 N/A
9:44 am 09:44 Cloudy with Drizzle 46 8 45 7 93 93 NE 15 24 30.03 1017 10 16 N/A
9:52 am 09:52 Cloudy with Drizzle 47 8.3 44 6.7 90 90 NE 13 20 29.99 1016 8 13 N/A
10:52 am 10:52 Cloudy 48 8.9 45 7.2 89 89 NE 16 26 30.00 1016 10 16 0.01 0.25
11:52 am 11:52 Cloudy 48 8.9 45 7.2 89 89 NE 13 20 29.99 1016 10 16 N/A
12:48 pm 12:48 Cloudy 48 9 45 7 87 87 NE 16 26 29.97 1015 10 16 N/A
12:52 pm 12:52 Cloudy 49 9.4 45 7.2 86 86 NE 16 26 29.99 1016 10 16 N/A
1:52 pm 13:52 Cloudy 50 10 45 7.2 83 83 NE 14 22 29.99 1016 10 16 N/A
2:36 pm 14:36 Cloudy 50 10 46 8 88 88 NE 12 19 29.97 1015 10 16 N/A
2:52 pm 14:52 Cloudy 50 10 46 7.8 86 86 NE 16 26 29.97 1015 10 16 N/A
3:52 pm 15:52 Cloudy 50 10 46 7.8 86 86 NE 17 28 29.98 1015 10 16 N/A
4:18 pm 16:18 Cloudy 52 11 46 8 82 82 NE 15 24 29.97 1015 10 16 N/A
4:52 pm 16:52 Cloudy 51 10.6 47 8.3 86 86 NNE 16 26 29.96 1015 10 16 N/A
5:52 pm 17:52 Cloudy 51 10.6 47 8.3 86 86 NE 16 26 29.98 1015 10 16 N/A
6:52 pm 18:52 Cloudy 51 10.6 47 8.3 86 86 NE 15 24 29.99 1016 10 16 N/A
7:52 pm 19:52 Cloudy 51 10.6 48 8.9 89 89 NE 14 22 30.00 1016 10 16 N/A
8:26 pm 20:26 Cloudy 52 11 48 9 88 88 NE 12 19 30.00 1016 10 16 N/A
8:52 pm 20:52 Cloudy 51 10.6 48 8.9 89 89 NE 12 19 30.00 1016 10 16 N/A
9:52 pm 21:52 Cloudy 51 10.6 49 9.4 92 92 NE 13 20 30.01 1016 10 16 N/A
10:52 pm 22:52 Cloudy 51 10.6 49 9.4 92 92 NE 9 15 30.01 1016 10 16 N/A
11:52 pm 23:52 Cloudy 52 11.1 50 10 93 93 NNE 13 20 30.00 1016 10 16 N/A

Powered by AerisWeather